FW6905 Weather Reports


time (UTC)temp
C
wind
direction
speed
KPH
gust
KPH
rain 1hr
cm
rain 24hr
cm
rain mn
cm
humidity
%
barometer
mb
20260906073508 26 28 9.7 24.1 0.00 0.00 0.00 39 1024.8
20260906073009 26 46 9.7 29.0 0.00 0.00 0.00 39 1024.8
20260906072506 25 47 8.0 29.0 0.00 0.00 0.00 40 1025.8
20260906072006 25 20 12.9 22.5 0.00 0.00 0.00 40 1025.8
20260906071506 25 12 6.4 22.5 0.00 0.00 0.00 40 1025.8
20260906071006 25 6 8.0 19.3 0.00 0.00 0.00 40 1025.8
20260906070506 25 337 8.0 24.1 0.00 0.00 0.00 40 1025.8
20260906070005 25 347 12.9 24.1 0.00 0.00 0.00 40 1025.8
20260906065506 25 12 9.7 17.7 0.00 0.00 0.00 41 1025.8
20260906064506 25 353 4.8 24.1 0.00 0.00 0.00 42 1025.8
20260906063506 24 348 12.9 29.0 0.00 0.00 0.00 43 1025.8
20260906063006 24 4 9.7 29.0 0.00 0.00 0.00 43 1025.8
20260906062006 24 337 11.3 27.4 0.00 0.00 0.00 42 1025.8
20260906061506 24 348 3.2 27.4 0.00 0.00 0.00 43 1025.8
20260906061006 24 337 3.2 25.7 0.00 0.00 0.00 43 1025.8
20260906060506 24 341 6.4 29.0 0.00 0.00 0.00 43 1025.8
20260906060006 24 357 6.4 29.0 0.00 0.00 0.00 43 1025.8
20260906054006 23 27 6.4 20.9 0.00 0.00 0.00 44 1025.8
20260906053006 23 323 9.7 14.5 0.00 0.00 0.00 44 1025.8
20260906052505 23 338 6.4 19.3 0.00 0.00 0.00 44 1024.8
20260906052006 23 341 8.0 19.3 0.00 0.00 0.00 43 1024.8
20260906051506 23 343 8.0 14.5 0.00 0.00 0.00 44 1024.8
20260906051006 23 334 11.3 14.5 0.00 0.00 0.00 44 1024.8
20260906050506 23 330 1.6 20.9 0.00 0.00 0.00 44 1024.8
20260906050006 23 341 6.4 20.9 0.00 0.00 0.00 43 1024.8
20260906045506 24 346 11.3 19.3 0.00 0.00 0.00 43 1024.8
20260906044506 24 339 9.7 24.1 0.00 0.00 0.00 43 1024.8
20260906044006 24 1 4.8 22.5 0.00 0.00 0.00 43 1024.8
20260906043506 24 10 6.4 19.3 0.00 0.00 0.00 43 1024.8
20260906043006 24 10 9.7 24.1 0.00 0.00 0.00 43 1024.8
20260906042505 24 16 17.7 24.1 0.00 0.00 0.00 43 1024.8
20260906042006 24 16 4.8 17.7 0.00 0.00 0.00 43 1024.8
20260906041505 24 7 6.4 12.9 0.00 0.00 0.00 43 1024.8
20260906041006 24 346 11.3 19.3 0.00 0.00 0.00 43 1023.8
20260906040506 24 12 8.0 19.3 0.00 0.00 0.00 43 1023.8
20260906040006 24 35 6.4 17.7 0.00 0.00 0.00 43 1023.8
20260906035506 24 7 8.0 19.3 0.00 0.00 0.00 43 1023.8
20260906035006 24 7 8.0 20.9 0.00 0.00 0.00 43 1023.8
20260906034506 24 32 11.3 20.9 0.00 0.00 0.00 43 1023.8
20260906034006 25 28 9.7 19.3 0.00 0.00 0.00 43 1023.8
20260906033505 25 39 6.4 19.3 0.00 0.00 0.00 43 1023.8
20260906033006 25 51 4.8 14.5 0.00 0.00 0.00 43 1023.8
20260906032006 25 28 8.0 16.1 0.00 0.00 0.00 42 1023.8
20260906031005 25 355 6.4 19.3 0.00 0.00 0.00 42 1023.8
20260906030506 25 1 11.3 20.9 0.00 0.00 0.00 42 1023.8
20260906030005 25 11 6.4 20.9 0.00 0.00 0.00 43 1023.8
20260906025506 24 342 4.8 17.7 0.00 0.00 0.00 43 1023.8
20260906024506 24 29 3.2 12.9 0.00 0.00 0.00 43 1023.8
20260906024006 24 327 9.7 12.9 0.00 0.00 0.00 43 1023.8
20260906023006 25 355 1.6 14.5 0.00 0.00 0.00 43 1023.8
20260906022506 25 289 6.4 14.5 0.00 0.00 0.00 43 1023.8
20260906022005 25 314 9.7 14.5 0.00 0.00 0.00 41 1023.8
20260906021005 25 321 9.7 11.3 0.00 0.00 0.00 41 1023.8
20260906020005 25 329 4.8 20.9 0.00 0.00 0.00 41 1023.8
20260906015506 25 355 4.8 17.7 0.00 0.00 0.00 41 1023.8
20260906015006 25 328 3.2 17.7 0.00 0.00 0.00 41 1023.8
20260906014506 25 334 6.4 22.5 0.00 0.00 0.00 40 1023.8
20260906014005 25 328 11.3 22.5 0.00 0.00 0.00 40 1023.8
20260906013506 25 315 11.3 24.1 0.00 0.00 0.00 40 1023.8
20260906013005 25 329 11.3 24.1 0.00 0.00 0.00 40 1023.8
20260906012506 25 329 6.4 16.1 0.00 0.00 0.00 41 1022.8
20260906012005 25 328 9.7 32.2 0.00 0.00 0.00 41 1022.8
20260906011005 25 345 17.7 30.6 0.00 0.00 0.00 41 1023.8
20260906010006 25 331 3.2 19.3 0.00 0.00 0.00 41 1023.8
20260906005506 25 333 4.8 19.3 0.00 0.00 0.00 41 1023.8
20260906005006 25 333 8.0 17.7 0.00 0.00 0.00 41 1023.8
20260906004505 25 342 8.0 17.7 0.00 0.00 0.00 41 1023.8
20260906004006 25 349 6.4 14.5 0.00 0.00 0.00 41 1023.8
20260906003006 25 2 4.8 11.3 0.00 0.00 0.00 41 1023.8
20260906002505 25 14 8.0 17.7 0.00 0.00 0.00 41 1023.8
20260906002006 25 14 11.3 17.7 0.00 0.00 0.00 40 1023.8
20260906001505 26 11 4.8 19.3 0.00 0.00 0.00 41 1023.8
20260906001006 26 4 6.4 19.3 0.00 0.00 0.00 40 1023.8
20260906000006 26 32 11.3 20.9 0.00 0.00 0.00 40 1023.8
20260905235505 26 23 8.0 22.5 0.00 0.00 0.00 40 1023.8
20260905235006 26 8 14.5 22.5 0.00 0.00 0.00 40 1023.8
20260905234506 26 359 6.4 12.9 0.00 0.00 0.00 40 1023.8
20260905234005 26 359 4.8 19.3 0.00 0.00 0.00 41 1023.8
20260905233506 26 7 3.2 19.3 0.00 0.00 0.00 40 1023.8
20260905233005 26 14 11.3 17.7 0.00 0.00 0.00 40 1023.8
20260905232506 26 17 9.7 17.7 0.00 0.00 0.00 40 1023.8
20260905232006 26 1 6.4 17.7 0.00 0.00 0.00 40 1023.8
20260905231005 26 7 11.3 29.0 0.00 0.00 0.00 40 1023.8
20260905230506 26 6 6.4 29.0 0.00 0.00 0.00 40 1023.8
20260905230006 26 8 3.2 19.3 0.00 0.00 0.00 40 1023.8
20260905225505 26 18 11.3 19.3 0.00 0.00 0.00 40 1022.8
20260905225006 26 13 6.4 19.3 0.00 0.00 0.00 40 1022.8
20260905224505 26 10 8.0 17.7 0.00 0.00 0.00 40 1022.8
20260905224006 26 18 17.7 19.3 0.00 0.00 0.00 40 1022.8
20260905223505 26 18 6.4 19.3 0.00 0.00 0.00 40 1022.8
20260905223006 26 26 6.4 14.5 0.00 0.00 0.00 39 1022.8
20260905222006 26 19 12.9 19.3 0.00 0.00 0.00 39 1022.8
20260905221006 26 20 12.9 22.5 0.00 0.00 0.00 39 1022.8
20260905220505 26 25 9.7 20.9 0.00 0.00 0.00 40 1022.8
20260905220012 26 25 9.7 20.9 0.00 0.00 0.00 39 1022.8
20260905215506 26 20 11.3 17.7 0.00 0.00 0.00 40 1022.8
20260905215006 26 19 6.4 17.7 0.00 0.00 0.00 40 1022.8
20260905214506 26 18 8.0 17.7 0.00 0.00 0.00 40 1022.8
20260905214006 26 13 9.7 16.1 0.00 0.00 0.00 40 1021.8
20260905213505 27 20 4.8 20.9 0.00 0.00 0.00 39 1021.8
20260905212505 27 35 9.7 14.5 0.00 0.00 0.00 39 1022.8
20260905212006 27 30 6.4 14.5 0.00 0.00 0.00 40 1022.8
20260905211506 27 20 6.4 20.9 0.00 0.00 0.00 40 1022.8
20260905211005 27 28 6.4 20.9 0.00 0.00 0.00 40 1022.8
20260905210505 27 30 9.7 19.3 0.00 0.00 0.00 40 1022.8
20260905205506 27 20 4.8 17.7 0.00 0.00 0.00 41 1021.8
20260905205005 27 33 8.0 16.1 0.00 0.00 0.00 40 1021.8
20260905204506 27 45 8.0 19.3 0.00 0.00 0.00 41 1021.8
20260905204005 26 48 14.5 19.3 0.00 0.00 0.00 42 1021.8
20260905203506 26 52 6.4 17.7 0.00 0.00 0.00 43 1021.8
20260905203005 26 50 6.4 14.5 0.00 0.00 0.00 43 1021.8
20260905202005 26 30 11.3 22.5 0.00 0.00 0.00 43 1021.8
20260905201505 26 40 8.0 20.9 0.00 0.00 0.00 43 1021.8
20260905201005 26 54 9.7 22.5 0.00 0.00 0.00 43 1021.8
20260905195505 27 39 6.4 19.3 0.00 0.00 0.00 43 1020.8
20260905195006 27 37 12.9 19.3 0.00 0.00 0.00 43 1020.8
20260905194506 27 41 6.4 17.7 0.00 0.00 0.00 43 1020.8
20260905193505 27 35 9.7 22.5 0.00 0.00 0.00 43 1021.8
20260905193006 27 39 9.7 14.5 0.00 0.00 0.00 44 1021.8
20260905192006 27 37 4.8 17.7 0.00 0.00 0.00 44 1021.8
20260905191505 27 48 4.8 14.5 0.00 0.00 0.00 44 1021.8
20260905191006 27 57 9.7 14.5 0.00 0.00 0.00 44 1021.8
20260905190505 27 53 6.4 22.5 0.00 0.00 0.00 44 1021.8
20260905190006 27 41 12.9 22.5 0.00 0.00 0.00 43 1021.8
20260905185505 27 31 9.7 19.3 0.00 0.00 0.00 43 1021.8
20260905185006 27 27 6.4 17.7 0.00 0.00 0.00 43 1021.8
20260905184006 27 20 6.4 16.1 0.00 0.00 0.00 43 1020.8
20260905183505 27 31 8.0 14.5 0.00 0.00 0.00 43 1020.8
20260905183006 27 26 6.4 12.9 0.00 0.00 0.00 43 1020.8
20260905182505 27 20 6.4 24.1 0.00 0.00 0.00 43 1020.8
20260905182006 28 24 11.3 24.1 0.00 0.00 0.00 42 1020.8
20260905181505 28 20 8.0 17.7 0.00 0.00 0.00 43 1020.8
20260905181006 28 12 9.7 17.7 0.00 0.00 0.00 42 1020.8
20260905180505 28 20 3.2 12.9 0.00 0.00 0.00 43 1020.8
20260905180006 28 34 3.2 17.7 0.00 0.00 0.00 43 1020.8
20260905175505 28 39 6.4 19.3 0.00 0.00 0.00 43 1020.8
20260905175006 28 41 9.7 20.9 0.00 0.00 0.00 43 1020.8
20260905174505 28 39 11.3 20.9 0.00 0.00 0.00 43 1020.8
20260905172505 28 23 11.3 14.5 0.00 0.00 0.00 44 1018.8
20260905172005 28 8 4.8 14.5 0.00 0.00 0.00 45 1018.8
20260905171506 28 9 4.8 17.7 0.00 0.00 0.00 45 1018.8
20260905170505 28 9 4.8 20.9 0.00 0.00 0.00 45 1019.8
20260905170005 28 13 8.0 20.9 0.00 0.00 0.00 46 1019.8
20260905165505 28 8 9.7 14.5 0.00 0.00 0.00 47 1019.8
20260905165005 28 4 3.2 12.9 0.00 0.00 0.00 48 1019.8
20260905164505 28 325 3.2 6.4 0.00 0.00 0.00 52 1019.8
20260905163505 28 282 3.2 8.0 0.00 0.00 0.00 52 1019.8
20260905163005 28 28 1.6 6.4 0.00 0.00 0.00 50 1019.8
20260905162505 29 131 0.0 4.8 0.00 0.00 0.00 50 1018.8
20260905162006 29 133 0.0 4.8 0.00 0.00 0.00 50 1018.8
20260905161505 29 284 1.6 6.4 0.00 0.00 0.00 49 1018.8
20260905161006 29 299 1.6 6.4 0.00 0.00 0.00 49 1018.8
20260905160505 29 319 1.6 3.2 0.00 0.00 0.00 49 1018.8
20260905160006 30 193 0.0 3.2 0.00 0.00 0.00 49 1018.8
20260905155505 30 186 1.6 3.2 0.00 0.00 0.00 48 1018.8
20260905155006 30 265 1.6 3.2 0.00 0.00 0.00 47 1018.8
20260905154505 30 223 1.6 3.2 0.00 0.00 0.00 46 1018.8
20260905154006 30 195 1.6 4.8 0.00 0.00 0.00 46 1018.8
20260905153005 30 261 0.0 4.8 0.00 0.00 0.00 45 1018.8
20260905152505 30 238 1.6 4.8 0.00 0.00 0.00 43 1018.8
20260905152005 30 236 4.8 6.4 0.00 0.00 0.00 43 1018.8
20260905151505 30 267 3.2 11.3 0.00 0.00 0.00 42 1018.8
20260905151005 30 289 4.8 11.3 0.00 0.00 0.00 39 1018.8
20260905150506 30 304 4.8 9.7 0.00 0.00 0.00 39 1018.8
20260905150005 31 312 4.8 14.5 0.00 0.00 0.00 39 1018.8
20260905145505 31 299 9.7 14.5 0.00 0.00 0.00 39 1017.7
20260905145005 31 285 8.0 11.3 0.00 0.00 0.00 39 1017.7
20260905144005 31 233 6.4 9.7 0.00 0.00 0.00 38 1017.7
20260905143505 31 205 4.8 9.7 0.00 0.00 0.00 38 1017.7
20260905143005 31 250 9.7 9.7 0.00 0.00 0.00 37 1017.7
20260905142506 31 278 4.8 9.7 0.00 0.00 0.00 38 1017.7
20260905142005 31 270 6.4 9.7 0.00 0.00 0.00 38 1017.7
20260905141506 31 271 4.8 9.7 0.00 0.00 0.00 38 1017.7
20260905141005 31 273 6.4 9.7 0.00 0.00 0.00 37 1018.8
20260905140505 31 275 8.0 11.3 0.00 0.00 0.00 37 1018.8
20260905140005 31 278 6.4 11.3 0.00 0.00 0.00 37 1018.8
20260905135505 31 270 4.8 9.7 0.00 0.00 0.00 36 1018.8
20260905134505 31 284 4.8 8.0 0.00 0.00 0.00 36 1018.8
20260905133505 31 279 6.4 12.9 0.00 0.00 0.00 36 1018.8
20260905133005 31 277 3.2 12.9 0.00 0.00 0.00 36 1018.8
20260905132505 31 283 4.8 14.5 0.00 0.00 0.00 35 1018.8
20260905132005 31 293 9.7 14.5 0.00 0.00 0.00 36 1018.8
20260905131505 31 281 9.7 14.5 0.00 0.00 0.00 36 1018.8
20260905131005 31 273 6.4 14.5 0.00 0.00 0.00 36 1018.8
20260905130506 31 282 3.2 14.5 0.00 0.00 0.00 36 1018.8
20260905130005 31 288 0.0 9.7 0.00 0.00 0.00 36 1018.8
20260905125505 31 283 6.4 11.3 0.00 0.00 0.00 36 1018.8
20260905125005 31 284 6.4 11.3 0.00 0.00 0.00 36 1018.8
20260905124505 31 291 1.6 6.4 0.00 0.00 0.00 36 1018.8
20260905124005 31 277 3.2 6.4 0.00 0.00 0.00 36 1019.8
20260905123005 31 276 4.8 14.5 0.00 0.00 0.00 36 1019.8
20260905122505 31 276 4.8 16.1 0.00 0.00 0.00 37 1019.8
20260905122005 31 276 12.9 16.1 0.00 0.00 0.00 37 1019.8
20260905121505 31 284 1.6 9.7 0.00 0.00 0.00 37 1019.8
20260905121006 31 276 3.2 11.3 0.00 0.00 0.00 38 1019.8
20260905120505 31 275 9.7 12.9 0.00 0.00 0.00 37 1019.8
20260905120005 31 274 9.7 12.9 0.00 0.00 0.00 38 1019.8
20260905115505 31 279 3.2 9.7 0.00 0.00 0.00 39 1019.8
20260905115006 31 289 6.4 14.5 0.00 0.00 0.00 39 1019.8
20260905114506 31 295 6.4 14.5 0.00 0.00 0.00 38 1019.8
20260905114005 30 305 6.4 9.7 0.00 0.00 0.00 39 1019.8
20260905113006 30 308 4.8 9.7 0.00 0.00 0.00 35 1019.8
20260905112505 30 311 6.4 8.0 0.00 0.00 0.00 39 1019.8
20260905112005 30 287 6.4 8.0 0.00 0.00 0.00 43 1019.8
20260905111505 30 285 3.2 8.0 0.00 0.00 0.00 42 1019.8
20260905110505 30 183 3.2 6.4 0.00 0.00 0.00 47 1019.8
20260905110005 29 218 3.2 6.4 0.00 0.00 0.00 46 1019.8
20260905105505 29 313 1.6 6.4 0.00 0.00 0.00 50 1019.8
20260905105006 28 247 4.8 6.4 0.00 0.00 0.00 51 1019.8
20260905104505 28 160 0.0 6.4 0.00 0.00 0.00 53 1019.8
20260905104005 28 164 1.6 6.4 0.00 0.00 0.00 52 1018.8
20260905103505 28 150 4.8 6.4 0.00 0.00 0.00 53 1018.8
20260905103006 27 57 1.6 4.8 0.00 0.00 0.00 55 1018.8
20260905102505 27 50 3.2 4.8 0.00 0.00 0.00 56 1019.8
20260905102005 27 63 3.2 4.8 0.00 0.00 0.00 56 1019.8
20260905101005 27 129 3.2 6.4 0.00 0.00 0.00 57 1018.8
20260905100505 26 148 3.2 4.8 0.00 0.00 0.00 59 1018.8
20260905100005 26 139 1.6 3.2 0.00 0.00 0.00 59 1018.8
20260905095505 26 115 3.2 3.2 0.00 0.00 0.00 60 1019.8
20260905095005 26 119 1.6 3.2 0.00 0.00 0.00 60 1019.8
20260905094504 26 158 0.0 3.2 0.00 0.00 0.00 60 1019.8
20260905093505 26 158 0.0 3.2 0.00 0.00 0.00 60 1018.8
20260905093005 26 156 1.6 4.8 0.00 0.00 0.00 60 1018.8
20260905092005 26 154 3.2 4.8 0.00 0.00 0.00 61 1019.8
20260905091505 25 156 3.2 4.8 0.00 0.00 0.00 62 1019.8
20260905091005 25 137 3.2 4.8 0.00 0.00 0.00 62 1019.8
20260905090504 25 106 3.2 3.2 0.00 0.00 0.00 62 1019.8
20260905090006 25 74 3.2 3.2 0.00 0.00 0.00 62 1019.8
20260905085506 25 41 1.6 3.2 0.00 0.00 0.00 62 1019.8
20260905085005 25 49 1.6 4.8 0.00 0.00 0.00 62 1019.8
20260905084505 25 63 3.2 4.8 0.00 0.00 0.00 62 1019.8
20260905084005 25 83 3.2 4.8 0.00 0.00 0.00 63 1019.8
20260905083505 25 120 3.2 3.2 0.00 0.00 0.00 64 1019.8
20260905083005 24 154 1.6 3.2 0.00 0.00 0.00 64 1019.8
20260905082505 24 181 1.6 6.4 0.00 0.00 0.00 65 1018.8
20260905081505 24 211 3.2 4.8 0.00 0.00 0.00 65 1018.8
20260905081005 23 282 1.6 4.8 0.00 0.00 0.00 68 1019.8
20260905080505 23 306 3.2 4.8 0.00 0.00 0.00 72 1019.8
20260905080005 23 3 3.2 4.8 0.00 0.00 0.00 72 1019.8
20260905075505 23 86 0.0 4.8 0.00 0.00 0.00 73 1019.8
20260905074505 22 108 3.2 6.4 0.00 0.00 0.00 75 1019.8
20260905074005 22 94 1.6 4.8 0.00 0.00 0.00 75 1019.8